sat.trackr.live / text

‹ back to catalog

STARLINK-33570

NORAD 62776 · 2025-015U

PAYLOAD ACTIVE UNKNOWN

§ Identity

Operator
Country
US
Launch date
2025-01-21
Launch site
AFWTR
Launch vehicle
Mass (kg)
RCS (m²)

Purposes: comms

External: N2YO · Heavens-Above · Gunter

§ Orbital elements

Epoch: 2026-05-24T22:42:04.431168Z

Period
93.85 min
Inclination
53.1599°
Eccentricity
0.0000858
Mean motion
15.34410042 rev/d
Perigee alt
462.1 km
Apogee alt
463.3 km
Semi-major
6,840.8 km
B*
9.2962e-4
RAAN
327.7318°
Arg perigee
257.2732°
Mean anomaly
102.8175°
Rev number
7,610

§ Raw data

STARLINK-335701 62776U 25015U   26144.94588462  .00031173  00000+0  92962-3 0  99992 62776  53.1599 327.7318 0000858 257.2732 102.8175 15.34410042 76104

JSON: /api/v1/satellites/62776 · /tle

For live sub-satellite position, see the globe view (requires WebGL).

§ Visibility from observer

Set your observer location to see the next 7 days of passes ≥ 10°. The values pass through the URL so the page stays shareable.

No JS? Fill the form by hand. The geolocation button needs JavaScript.